SKYSAT-C1

Last updated on Wed Sep 17 2025 00:02:31 GMT+0000 (Coordinated Universal Time)

1 41601U 16040C 25259.03461901 .00008848 00000+0 30396-3 0 9991 2 41601 96.9973 301.0545 0000775 306.0339 54.0831 15.30329060515852
UTC large
Height (km)
Speed (km/s)
/
Latitude / Longitude
Inclination (degrees)
Orbital Period (minutes)
Azimuth
Elevation
Range (km)
Doppler Factor

Next 0 passes for location: London (51.5072 / 0.1276)

Sorry there are no passes over London.